Satellite-Ground Cal/Val Site Overpasses Predictions

Prediction of Satellite NPP Overpassing Cal/Val Site: Antarctic Dome C

Ground Cal/Val Site Location: Latitude: -75.10, Longitude: 123.35; Satellite-Ground Site NADIR distance within 100 km.

Table of predicted overpasses for the next 14.0 days since TLE Epoch: 8/10/2014
Interval Starting Time Ending Time Minimum Distance Time Minimum Distance (km)
1 08/12/2014 14:56:13 08/12/2014 14:56:42 08/12/2014 14:56:27 11.23
2 08/14/2014 07:39:06 08/14/2014 07:39:35 08/14/2014 07:39:20 5.66
3 08/17/2014 15:02:39 08/17/2014 15:03:07 08/17/2014 15:02:53 25.74
4 08/18/2014 14:43:58 08/18/2014 14:44:15 08/18/2014 14:44:06 81.16
5 08/19/2014 07:45:32 08/19/2014 07:46:00 08/19/2014 07:45:46 30.82
6 08/20/2014 07:26:50 08/20/2014 07:27:07 08/20/2014 07:26:58 79.19
7 08/22/2014 15:09:09 08/22/2014 15:09:31 08/22/2014 15:09:20 63.19
8 08/23/2014 14:50:19 08/23/2014 14:50:45 08/23/2014 14:50:32 45.91


NCC Satellite Cal/Val Overpasses Prediction Service
